Location: Grieser Field
(39.7333°N, 81.7975°W)
Time: 14:04:16
(UTC-04:00)

Hubble Space Telescope - Visible Passes

Search period start: 05 May 2016 00:00
Search period end: 15 May 2016 00:00
Orbit: 539 x 543 km, 28.5° (Epoch: 05 May)

Date Brightness Start Highest point End Pass type
(mag) Time Alt. Az. Time Alt. Az. Time Alt. Az.
05 May 2.6 04:41:14 16° SSE 04:41:14 16° SSE 04:43:18 10° SE visible
06 May 2.8 04:32:13 15° SSE 04:32:13 15° SSE 04:33:32 10° SE visible
07 May 3.1 04:23:19 11° SSE 04:23:19 11° SSE 04:23:43 10° SE visible
14 May 2.9 21:59:35 10° SSW 22:00:24 12° S 22:00:24 12° S visible
